This is the latest recevied weather packets stored in our database for station/object WA6ODQ-13. If no packets are shown the sender has not sent any weather packets the latest 10 day(s).
| Time | Temp. | Humidity | Pressure | Rain* | Wind** | Luminosity | Snow |
|---|---|---|---|---|---|---|---|
| 1778113468 | 25.56° C | 57% | 1015.3 hPa | 0 mm | - | 286 W/m² | - |
| 1778113165 | 25° C | 59% | 1015.1 hPa | 0 mm | - | 301 W/m² | - |
| 1778112862 | 25.56° C | 57% | 1015.1 hPa | 0 mm | - | 315 W/m² | - |
| 1778112560 | 25.56° C | 57% | 1015.3 hPa | 0 mm | - | 329 W/m² | - |
| 1778112255 | 26.11° C | 57% | 1015.1 hPa | 0 mm | - | 344 W/m² | - |
| 1778111951 | 26.67° C | 55% | 1015.1 hPa | 0 mm | - | 358 W/m² | - |
| 1778111649 | 26.67° C | 54% | 1015.4 hPa | 0 mm | - | 370 W/m² | - |
| 1778111343 | 26.11° C | 55% | 1015.3 hPa | 0 mm | - | 383 W/m² | - |
| 1778111042 | 26.67° C | 53% | 1015.5 hPa | 0 mm | - | 398 W/m² | - |
| 1778110734 | 26.67° C | 52% | 1015.7 hPa | 0 mm | - | 411 W/m² | - |
| 1778110430 | 26.67° C | 53% | 1015.4 hPa | 0 mm | - | 424 W/m² | - |
| 1778110127 | 27.78° C | 51% | 1015.5 hPa | 0 mm | - | 439 W/m² | - |
| 1778109823 | 28.33° C | 50% | 1015.5 hPa | 0 mm | - | 451 W/m² | - |
| 1778109519 | 27.78° C | 49% | 1015.4 hPa | 0 mm | - | 464 W/m² | - |
| 1778109217 | 27.22° C | 50% | 1015.7 hPa | 0 mm | - | 477 W/m² | - |
| 1778108914 | 27.78° C | 51% | 1015.8 hPa | 0 mm | - | 489 W/m² | - |
| 1778108611 | 27.22° C | 51% | 1016 hPa | 0 mm | - | 501 W/m² | - |
| 1778108307 | 26.67° C | 51% | 1016.1 hPa | 0 mm | - | 514 W/m² | - |
| 1778108005 | 26.67° C | 51% | 1015.9 hPa | 0 mm | - | 522 W/m² | - |
| 1778107701 | 26.67° C | 52% | 1016.1 hPa | 0 mm | - | 534 W/m² | - |
| 1778107398 | 27.78° C | 48% | 1016 hPa | 0 mm | - | 550 W/m² | - |
| 1778107095 | 27.78° C | 50% | 1016.1 hPa | 0 mm | - | 561 W/m² | - |
| 1778106790 | 28.33° C | 51% | 1016.2 hPa | 0 mm | - | 572 W/m² | - |
| 1778106487 | 27.78° C | 47% | 1016.2 hPa | 0 mm | - | 581 W/m² | - |
| 1778106182 | 26.67° C | 49% | 1016.6 hPa | 0 mm | - | 590 W/m² | - |
* Rain latest hour (hover to see other rain measurements)
** Current wind speed in m/s (hover to see current wind gust speed)